Regional Weather Roundup
Issued by NWS

Home | Current Version | Previous Version | Graphics & Text | Print | Product List | Glossary On
Versions: 1 2 3 4 5 6 7 8 9 10 11 12 13 14 15 16 17 18 19 20 21 22 23 24 25 26 27
000
ASUS45 KPSR 270010
RWRAZ

ARIZONA HOURLY REGIONAL WEATHER ROUNDUP
NATIONAL WEATHER SERVICE PHOENIX AZ
500 PM MST TUE JUL 26 2016

NOTE: FAIR INDICATES FEW OR NO CLOUDS BELOW 12,000 FEET WITH NO
SIGNIFICANT WEATHER AND/OR OBSTRUCTIONS TO VISIBILITY.

AZZ001>003-036-270100-
NORTHWEST ARIZONA

CITY           SKY/WX    TMP DP  RH WIND       PRES   REMARKS
BULLHEAD CITY  SUNNY    113  48  11 SW8       29.67F HX 109
KINGMAN        MOSUNNY  102  43  13 W9        29.93F
6HR MIN TEMP:  98; 6HR MAX TEMP: 104;

$$

AZZ004>008-015-016-018-270100-
NORTH CENTRAL ARIZONA

CITY           SKY/WX    TMP DP  RH WIND       PRES   REMARKS
GRAND CANYON   PTSUNNY   85  45  24 S10       30.25S
6HR MIN TEMP:  74; 6HR MAX TEMP:  89; 6HR PCP:  0.02;

WILLIAMS       MOSUNNY   82  50  32 W8G14     30.33S
PRESCOTT       MOSUNNY   92  49  22 VRB5      30.11F
6HR MIN TEMP:  76; 6HR MAX TEMP:  92; 6HR PCP: TRACE;

FLAGSTAFF      PTSUNNY   77  53  43 CALM      30.28F
6HR MIN TEMP:  68; 6HR MAX TEMP:  80; 6HR PCP: TRACE;

PAYSON         PTSUNNY   88  48  25 VRB6      30.14F
PAGE           PTSUNNY  100  36  11 NE8       30.01F
6HR MIN TEMP:  94; 6HR MAX TEMP: 103;

$$

AZZ009>014-017-270100-
NORTHEAST ARIZONA

CITY           SKY/WX    TMP DP  RH WIND       PRES   REMARKS
WINSLOW        PTSUNNY   90  50  25 S13       30.09F
6HR MIN TEMP:  84; 6HR MAX TEMP:  96;

SAINT JOHNS    CLOUDY    80  58  46 SW7       30.15F
6HR MIN TEMP:  70; 6HR MAX TEMP:  92; 6HR PCP:  0.05;

WINDOW ROCK    MOSUNNY   83  46  27 NW5       30.24F
6HR MIN TEMP:  80; 6HR MAX TEMP:  87;

SHOW LOW       CLOUDY    73  48  40 W8        30.25S
$$

AZZ023-270100-
GREATER PHOENIX AREA

CITY           SKY/WX    TMP DP  RH WIND       PRES   REMARKS
PHOENIX        MOSUNNY  109  56  17 NW9       29.71F HX 108
6HR MIN TEMP: 101; 6HR MAX TEMP: 111;

BUCKEYE        SUNNY    109  55  17 SW8G16    29.73F HX 108
GLENDALE       MOSUNNY  111  57  17 S12       29.72F HX 111
LUKE AFB       SUNNY    109  57  18 VRB6      29.70F HX 108
6HR MIN TEMP: 102; 6HR MAX TEMP: 110;

DEER VALLEY    SUNNY    107  56  18 SW6       29.74F HX 106
6HR MIN TEMP:  99; 6HR MAX TEMP: 108;

SCOTTSDALE     SUNNY    108  54  16 NW5       29.76F HX 106
MESA-FALCON    MOSUNNY  N/A N/A N/A SW14G21   29.72F
MESA-GATEWAY   MOSUNNY  108  55  18 W8        29.75F HX 106
CHANDLER       MOSUNNY  109  52  15 W12       29.73F HX 107
$$

AZZ027-028-270100-
SOUTHWEST MARICOPA COUNTY AND PINAL COUNTY

CITY           SKY/WX    TMP DP  RH WIND       PRES   REMARKS
CASA GRANDE    SUNNY    108  55  18 N7        29.77F HX 106
6HR MIN TEMP: 100; 6HR MAX TEMP: 109;

GILA BEND      MOSUNNY  109  56  17 VRB6      29.70F HX 108
6HR MIN TEMP: 102; 6HR MAX TEMP: 110;

$$

AZZ503-504-507>509-270100-
SOUTHEAST ARIZONA

CITY           SKY/WX    TMP DP  RH WIND       PRES   REMARKS
TUCSON         MOSUNNY  105  56  19 N12G18    29.85F HX 104
6HR MIN TEMP:  94; 6HR MAX TEMP: 105;

DAVIS-MONTHAN  SUNNY    103  56  21 NW13G21   29.84S HX 101
6HR MIN TEMP:  94; 6HR MAX TEMP: 103;

RYAN FIELD     SUNNY    102  55  21 NW13      29.84F HX 101
NOGALES        CLOUDY    84  68  58 SE3       29.98R
6HR MIN TEMP:  78; 6HR MAX TEMP:  97; 6HR PCP:  0.17;

SIERRA VISTA   MOSUNNY   91  55  29 E8        30.04F THUNDER
6HR MIN TEMP:  86; 6HR MAX TEMP:  95;

DOUGLAS        MOSUNNY   89  60  37 E17       29.99S
6HR MIN TEMP:  84; 6HR MAX TEMP:  94;

SAFFORD        MOSUNNY  100  52  19 S14       29.86F
6HR MIN TEMP:  93; 6HR MAX TEMP: 103;

$$

AZZ020-021-025-026-031-270100-
SOUTHWEST ARIZONA

CITY           SKY/WX    TMP DP  RH WIND       PRES   REMARKS
YUMA           MOSUNNY  107  61  22 S6        29.69F HX 109
6HR MIN TEMP:  97; 6HR MAX TEMP: 107;

$$

CAZ031-033-041-043-047-048-061-270100-
SOUTHERN CALIFORNIA

CITY           SKY/WX    TMP DP  RH WIND       PRES   REMARKS
DOWNTOWN L.A.  SUNNY     81  58  45 VRB3      29.83S
6HR MIN TEMP:  81; 6HR MAX TEMP:  86;

L.A. AIRPORT   MOSUNNY   76  65  68 W16       29.84F
6HR MIN TEMP:  74; 6HR MAX TEMP:  79;

SAN DIEGO      MOSUNNY   76  65  68 NW9       29.86F
6HR MIN TEMP:  75; 6HR MAX TEMP:  78;

BURBANK        SUNNY     94  51  23 S10       29.82F
6HR MIN TEMP:  89; 6HR MAX TEMP:  96;

ONTARIO        MOSUNNY   99  46  16 SW17      29.82F
6HR MIN TEMP:  91; 6HR MAX TEMP: 102;

RIVERSIDE      SUNNY     98  55  23 W10G22    29.81F
6HR MIN TEMP:  91; 6HR MAX TEMP: 103;

PALM SPRINGS   MOSUNNY  110  57  17 E6        29.71F HX 110
6HR MIN TEMP: 103; 6HR MAX TEMP: 111;

EL CENTRO NAS  MOSUNNY  108  61  21 SE6         N/A  HX 110
6HR MIN TEMP:  86; 6HR MAX TEMP: 109;

IMPERIAL       SUNNY    111  62  20 CALM      29.66F HX 114
6HR MIN TEMP: 103; 6HR MAX TEMP: 113;

BLYTHE         SUNNY    112  56  16 VRB3      29.68F HX 111
6HR MIN TEMP: 102; 6HR MAX TEMP: 113;

NEEDLES        PTSUNNY  115  51  12 S6        29.69F HX 112
6HR MIN TEMP: 108; 6HR MAX TEMP: 116;

$$

NVZ020-UTZ003-270100-
SOUTHERN NEVADA-UTAH

CITY           SKY/WX    TMP DP  RH WIND       PRES   REMARKS
LAS VEGAS      MOSUNNY  110  35   7 CALM      29.76F HX 103
6HR MIN TEMP: 101; 6HR MAX TEMP: 112;

SALT LAKE CITY MOSUNNY  101  30   8 N16       29.98S
6HR MIN TEMP:  95; 6HR MAX TEMP: 104;

$$

NMZ009-TXZ055-270100-
NEW MEXICO-WEST TEXAS

CITY           SKY/WX    TMP DP  RH WIND       PRES   REMARKS
ALBUQUERQUE    CLOUDY    92  49  22 NW7       30.08F
6HR MIN TEMP:  82; 6HR MAX TEMP:  93;

EL PASO        TSTM      90  54  29 NW10G22   30.01R
6HR MIN TEMP:  90; 6HR MAX TEMP: 100; 6HR PCP: TRACE;

$$


........................KEY........................
SKY/WX - SKY CONDITION/WEATHER
TMP    - TEMPERATURE IN FAHRENHEIT
DP     - DEW POINT IN FAHRENHEIT
RH     - RELATIVE HUMIDITY IN PERCENT
WIND   - DIRECTION AND SPEED IN MILES PER HOUR (MPH)
VRB    - VARIABLE WIND DIRECTION
PRES   - MEAN SEA LEVEL PRESSURE IN INCHES OF MERCURY
         F - FALLING PRESSURE   R - RISING PRESSURE
         S - STEADY PRESSURE
VSB    - VISIBILITY IN MILES
HX     - HEAT INDEX IN FAHRENHEIT
WCI    - WIND CHILL INDEX IN FAHRENHEIT
TC     - TEMPERATURE IN CELSIUS WHICH IS ALSO KNOWN AS
         TEMPERATURE IN CENTIGRADE
AFB    - AIR FORCE BASE
         LUKE AFB IS LUKE AIR FORCE BASE
         DAVIS-MONTHAN IS DAVIS-MONTHAN AIR FORCE BASE
NAS    - NAVAL AIR STATION
         EL CENTRO NAS IS EL CENTRO NAVAL AIR STATION
N/A    - NOT AVAILABLE





USA.gov is the U.S. government's official web portal to all federal, state and local government web resources and services.